Terug naar catalogus

STARLINK-30497

ActiefCommunicatieVLEO
NORAD 58011·PAYLOAD·🇺🇸 United States

Gelanceerd Oct 5, 2023 vanaf Cape Canaveral Space Force Station

Loading…

Volgende Passages (komende 24 uur)

TLE

VersSource: CelesTrak SupGP

Epoch: Sep 15, 2026, 02:46 UTC

1 58011C 23153W   26258.11576389 -.00057490  00000+0 -20815-2 0  2584
2 58011  43.0014  76.9451 0001390 279.7506 322.1006 15.27619093    18

Volg STARLINK-30497 in realtime met AllMySat

Download on the App Store